Powrót do katalogu

STARLINK-4649

AktywnyŁącznośćVLEO
NORAD 53831·PAYLOAD·🇺🇸 United States

Wystrzelony Sep 19, 2022 z Cape Canaveral Space Force Station

Loading…

Następne Przeloty (najbliższe 24 godziny)

TLE

ŚwieżeSource: CelesTrak SupGP

Epoka: Sep 15, 2026, 01:33 UTC

1 53831C 22114P   26258.06506944  .00003263  00000+0  96417-4 0  2589
2 53831  53.1606 164.7957 0001362  79.8566 245.1115 15.34384067    16

Śledź STARLINK-4649 w czasie rzeczywistym z AllMySat

Download on the App Store